This demonstration page uses our WeatherBlox Daily Observations layout. Learn more.

Left ArrowRight Arrow

Hourly Observations for November 13, 2021

Temp ( °F °C ) Dew Point ( °F °C ) Humidity (%) Winds ( mph kmh ) Pressure ( in mb ) Visibility ( mi km ) Precip ( " mm )
12:56 am 00:56 Clear 23 -5 17 -8.3 78 78 W 5 7 30.27 1025 10 16 0.00 0.00
1:56 am 01:56 Clear 24 -4.4 16 -8.9 71 71 WSW 5 7 30.25 1024 10 16 0.00 0.00
2:56 am 02:56 Clear 20 -6.7 16 -8.9 85 85 Calm 30.24 1024 10 16 0.00 0.00
3:56 am 03:56 Clear 21 -6.1 16 -8.9 81 81 S 3 6 30.19 1023 10 16 0.00 0.00
4:56 am 04:56 Mostly Cloudy 20 -6.7 17 -8.3 89 89 SSE 3 6 30.18 1022 10 16 0.00 0.00
5:56 am 05:56 Mostly Clear 24 -4.4 18 -7.8 77 77 SSW 6 9 30.16 1021 10 16 0.00 0.00
6:56 am 06:56 Clear 23 -5 18 -7.8 81 81 S 7 11 30.15 1021 10 16 0.00 0.00
7:56 am 07:56 Cloudy 25 -3.9 19 -7.2 78 78 S 9 15 30.13 1020 10 16 0.00 0.00
8:56 am 08:56 Cloudy 31 -0.6 20 -6.7 64 64 S 14 22 30.10 1019 10 16 0.00 0.00
9:56 am 09:56 Partly Cloudy 36 2.2 20 -6.7 52 52 S 15 24 30.07 1018 10 16 0.00 0.00
10:56 am 10:56 Mostly Sunny 41 5 20 -6.7 43 43 SSW 16 26 30.04 1017 10 16 0.00 0.00
11:56 am 11:56 Mostly Cloudy 44 6.7 22 -5.6 41 41 SW 13 20 30.01 1016 10 16 0.00 0.00
12:56 pm 12:56 Mostly Sunny 48 8.9 24 -4.4 39 39 WSW 14 22 29.98 1015 10 16 0.00 0.00
1:56 pm 13:56 Mostly Cloudy 50 10 29 -1.7 44 44 W 9 15 29.96 1014 10 16 0.00 0.00
2:56 pm 14:56 Mostly Sunny 51 10.6 31 -0.6 46 46 SSW 9 15 29.91 1013 10 16 0.00 0.00
3:56 pm 15:56 Sunny 53 11.7 32 0 45 45 SW 7 11 29.92 1013 10 16 0.00 0.00
4:56 pm 16:56 Sunny 51 10.6 33 0.6 50 50 SW 8 13 29.92 1013 10 16 0.00 0.00
5:56 pm 17:56 Clear 45 7.2 32 0 61 61 SSW 7 11 29.92 1013 10 16 0.00 0.00
6:56 pm 18:56 Clear 47 8.3 33 0.6 59 59 SW 9 15 29.93 1014 10 16 0.00 0.00
7:56 pm 19:56 Cloudy 47 8.3 33 0.6 59 59 NW 8 13 29.97 1015 10 16 0.00 0.00
8:06 pm 20:06 Cloudy with Rain 46 8 41 5 82 82 N 41 67 30.04 1017 6 10 0.02 0.51
8:18 pm 20:18 Cloudy with Light Rain 45 7 41 5 87 87 NNE 30 48 30.03 1017 10 16 0.03 0.76
8:56 pm 20:56 Mostly Clear 44 6.7 40 4.4 85 85 N 22 35 30.07 1018 10 16 0.03 0.76
9:56 pm 21:56 Cloudy 45 7.2 38 3.3 77 77 N 13 20 30.09 1019 10 16 0.00 0.00
10:56 pm 22:56 Cloudy 45 7.2 35 1.7 68 68 NNW 10 17 30.09 1019 10 16 0.00 0.00
11:56 pm 23:56 Mostly Cloudy 44 6.7 33 0.6 65 65 NW 12 19 30.10 1019 10 16 0.00 0.00

Powered by AerisWeather